Time,TemperatureF,DewpointF,PressureIn,WindDirection,WindDirectionDegrees,WindSpeedMPH,WindSpeedGustMPH,Humidity,HourlyPrecipIn,Conditions,Clouds,dailyrainin,SoftwareType,DateUTC
2013-05-08 00:07:00,58.8,57.0,30.02,South,183,0.0,0.0,94,0.00,,,0.00,weatherlink.com 1.10,2013-05-07 22:07:00,
2013-05-08 00:22:00,58.9,57.0,30.02,South,183,0.0,0.0,94,0.00,,,0.00,weatherlink.com 1.10,2013-05-07 22:22:00,
2013-05-08 00:37:00,58.9,57.0,30.02,South,183,0.0,0.0,94,0.00,,,0.00,weatherlink.com 1.10,2013-05-07 22:37:00,
2013-05-08 00:52:00,58.8,57.0,30.02,South,183,0.0,0.0,94,0.00,,,0.00,weatherlink.com 1.10,2013-05-07 22:52:00,
2013-05-08 01:07:00,58.6,57.0,30.01,South,183,0.0,0.0,94,0.00,,,0.00,weatherlink.com 1.10,2013-05-07 23:07:00,
2013-05-08 01:22:00,58.4,57.0,30.01,NE,45,0.0,0.0,94,0.00,,,0.00,weatherlink.com 1.10,2013-05-07 23:22:00,
2013-05-08 01:37:00,58.4,56.0,30.01,NE,45,0.0,0.0,93,0.00,,,0.00,weatherlink.com 1.10,2013-05-07 23:37:00,
2013-05-08 01:52:00,58.5,57.0,30.01,NE,44,0.0,0.0,93,0.00,,,0.00,weatherlink.com 1.10,2013-05-07 23:52:00,
2013-05-08 02:07:00,58.5,57.0,30.00,NE,46,0.0,0.0,93,0.00,,,0.00,weatherlink.com 1.10,2013-05-08 00:07:00,
2013-05-08 02:22:00,58.6,56.0,30.00,NE,46,0.0,0.0,92,0.00,,,0.00,weatherlink.com 1.10,2013-05-08 00:22:00,
2013-05-08 02:37:00,58.4,56.0,30.00,SSE,149,0.0,0.0,92,0.00,,,0.00,weatherlink.com 1.10,2013-05-08 00:37:00,
2013-05-08 02:52:00,58.5,56.0,29.99,SSE,149,0.0,0.0,92,0.00,,,0.00,weatherlink.com 1.10,2013-05-08 00:52:00,
2013-05-08 03:07:00,57.9,56.0,29.99,SSE,149,0.0,0.0,92,0.00,,,0.00,weatherlink.com 1.10,2013-05-08 01:07:00,
2013-05-08 03:22:00,57.6,56.0,29.98,SE,127,0.0,0.0,93,0.00,,,0.00,weatherlink.com 1.10,2013-05-08 01:22:00,
2013-05-08 03:37:00,57.5,56.0,29.98,SE,129,0.0,0.0,93,0.00,,,0.00,weatherlink.com 1.10,2013-05-08 01:37:00,
2013-05-08 03:52:00,57.1,55.0,29.98,SSE,157,0.0,0.0,93,0.00,,,0.00,weatherlink.com 1.10,2013-05-08 01:52:00,
2013-05-08 04:07:00,57.0,55.0,29.98,SSE,157,0.0,0.0,93,0.00,,,0.00,weatherlink.com 1.10,2013-05-08 02:07:00,
2013-05-08 04:22:00,56.6,55.0,29.98,SSE,157,0.0,0.0,93,0.00,,,0.00,weatherlink.com 1.10,2013-05-08 02:22:00,
2013-05-08 04:37:00,56.4,55.0,29.98,SSE,156,0.0,0.0,93,0.00,,,0.00,weatherlink.com 1.10,2013-05-08 02:37:00,
2013-05-08 04:52:00,56.3,54.0,29.98,SSE,157,0.0,0.0,93,0.00,,,0.00,weatherlink.com 1.10,2013-05-08 02:52:00,
2013-05-08 05:07:00,55.9,54.0,29.98,SSE,156,0.0,0.0,93,0.00,,,0.00,weatherlink.com 1.10,2013-05-08 03:07:00,
2013-05-08 05:22:00,55.6,54.0,29.98,SSE,157,0.0,0.0,93,0.00,,,0.00,weatherlink.com 1.10,2013-05-08 03:22:00,
2013-05-08 05:37:00,55.5,54.0,29.98,SSE,156,0.0,0.0,93,0.00,,,0.00,weatherlink.com 1.10,2013-05-08 03:37:00,
2013-05-08 05:52:00,54.6,53.0,29.98,SSE,157,0.0,0.0,93,0.00,,,0.00,weatherlink.com 1.10,2013-05-08 03:52:00,
2013-05-08 06:07:00,54.7,53.0,29.98,SSE,157,0.0,0.0,94,0.00,,,0.00,weatherlink.com 1.10,2013-05-08 04:07:00,
2013-05-08 06:22:00,54.6,53.0,29.98,SSE,164,0.0,0.0,94,0.00,,,0.00,weatherlink.com 1.10,2013-05-08 04:22:00,
2013-05-08 06:38:00,54.0,52.0,29.98,SSE,163,0.0,0.0,94,0.00,,,0.00,weatherlink.com 1.10,2013-05-08 04:38:00,
2013-05-08 06:53:00,54.4,53.0,29.98,SSE,163,0.0,0.0,94,0.00,,,0.00,weatherlink.com 1.10,2013-05-08 04:53:00,
2013-05-08 07:08:00,54.9,53.0,29.99,SSE,164,0.0,0.0,94,0.00,,,0.00,weatherlink.com 1.10,2013-05-08 05:08:00,
2013-05-08 07:23:00,55.8,54.0,29.99,SSE,163,0.0,0.0,95,0.00,,,0.00,weatherlink.com 1.10,2013-05-08 05:23:00,
2013-05-08 07:38:00,56.6,55.0,29.99,SSE,164,0.0,0.0,95,0.00,,,0.00,weatherlink.com 1.10,2013-05-08 05:38:00,
2013-05-08 07:53:00,57.7,56.0,29.99,ENE,68,0.0,0.0,95,0.00,,,0.00,weatherlink.com 1.10,2013-05-08 05:53:00,
2013-05-08 08:08:00,57.8,56.0,30.00,ENE,68,0.0,0.0,94,0.00,,,0.00,weatherlink.com 1.10,2013-05-08 06:08:00,
2013-05-08 08:23:00,59.1,57.0,30.00,ENE,68,0.0,0.0,94,0.00,,,0.00,weatherlink.com 1.10,2013-05-08 06:23:00,
2013-05-08 08:38:00,60.3,57.0,30.00,ENE,68,0.0,0.0,90,0.00,,,0.00,weatherlink.com 1.10,2013-05-08 06:38:00,
2013-05-08 08:53:00,61.1,58.0,30.00,ENE,68,0.0,0.0,88,0.00,,,0.00,weatherlink.com 1.10,2013-05-08 06:53:00,
2013-05-08 09:08:00,62.1,58.0,30.00,South,176,0.0,0.0,86,0.00,,,0.00,weatherlink.com 1.10,2013-05-08 07:08:00,
2013-05-08 09:23:00,63.3,59.0,30.00,South,182,0.0,0.0,85,0.00,,,0.00,weatherlink.com 1.10,2013-05-08 07:23:00,
2013-05-08 09:38:00,64.3,59.0,30.00,South,183,0.0,0.0,83,0.00,,,0.00,weatherlink.com 1.10,2013-05-08 07:38:00,
2013-05-08 09:53:00,65.3,57.0,30.00,South,175,0.0,0.0,75,0.00,,,0.00,weatherlink.com 1.10,2013-05-08 07:53:00,
2013-05-08 10:08:00,66.3,58.0,30.00,South,175,0.0,0.0,75,0.00,,,0.00,weatherlink.com 1.10,2013-05-08 08:08:00,
2013-05-08 10:23:00,66.6,57.0,30.00,South,176,0.0,0.0,72,0.00,,,0.00,weatherlink.com 1.10,2013-05-08 08:23:00,
2013-05-08 10:38:00,67.5,57.0,30.01,South,185,0.0,0.0,68,0.00,,,0.00,weatherlink.com 1.10,2013-05-08 08:38:00,
2013-05-08 10:53:00,67.9,57.0,30.00,South,181,0.0,0.0,68,0.00,,,0.00,weatherlink.com 1.10,2013-05-08 08:53:00,
2013-05-08 11:08:00,67.9,57.0,30.00,South,176,0.0,0.0,68,0.00,,,0.00,weatherlink.com 1.10,2013-05-08 09:08:00,
2013-05-08 11:23:00,68.2,55.0,30.00,ESE,114,0.0,2.0,64,0.00,,,0.00,weatherlink.com 1.10,2013-05-08 09:23:00,
2013-05-08 11:38:00,68.3,56.0,30.00,NE,48,0.0,2.0,66,0.00,,,0.00,weatherlink.com 1.10,2013-05-08 09:38:00,
2013-05-08 11:53:00,69.5,57.0,30.00,SSE,164,0.0,1.0,64,0.00,,,0.00,weatherlink.com 1.10,2013-05-08 09:53:00,
2013-05-08 12:08:00,69.4,57.0,29.99,South,180,0.0,0.0,66,0.00,,,0.00,weatherlink.com 1.10,2013-05-08 10:08:00,
2013-05-08 12:23:00,70.0,58.0,29.99,South,179,0.0,0.0,65,0.00,,,0.00,weatherlink.com 1.10,2013-05-08 10:23:00,
2013-05-08 12:38:00,69.9,56.0,29.98,South,180,0.0,1.0,62,0.00,,,0.00,weatherlink.com 1.10,2013-05-08 10:38:00,
2013-05-08 12:53:00,69.8,57.0,29.97,South,179,0.0,0.0,64,0.00,,,0.00,weatherlink.com 1.10,2013-05-08 10:53:00,
2013-05-08 13:08:00,71.4,58.0,29.97,South,179,0.0,1.0,62,0.00,,,0.00,weatherlink.com 1.10,2013-05-08 11:08:00,
2013-05-08 13:23:00,72.2,59.0,29.97,South,180,0.0,1.0,63,0.00,,,0.00,weatherlink.com 1.10,2013-05-08 11:23:00,
2013-05-08 13:38:00,71.2,60.0,29.97,South,178,0.0,0.0,68,0.00,,,0.00,weatherlink.com 1.10,2013-05-08 11:38:00,
2013-05-08 13:54:00,70.3,60.0,29.97,SSE,168,0.0,1.0,70,0.00,,,0.00,weatherlink.com 1.10,2013-05-08 11:54:00,
2013-05-08 14:09:00,70.4,61.0,29.97,South,172,0.0,1.0,71,0.00,,,0.00,weatherlink.com 1.10,2013-05-08 12:09:00,
2013-05-08 14:24:00,70.3,60.0,29.96,SSE,161,0.0,0.0,71,0.00,,,0.00,weatherlink.com 1.10,2013-05-08 12:24:00,
2013-05-08 14:39:00,72.2,61.0,29.96,SE,146,0.0,1.0,67,0.00,,,0.00,weatherlink.com 1.10,2013-05-08 12:39:00,
2013-05-08 14:54:00,72.7,60.0,29.96,South,176,0.0,1.0,65,0.00,,,0.00,weatherlink.com 1.10,2013-05-08 12:54:00,
2013-05-08 15:09:00,71.8,60.0,29.96,SE,138,0.0,0.0,67,0.00,,,0.00,weatherlink.com 1.10,2013-05-08 13:09:00,
2013-05-08 15:24:00,71.6,60.0,29.96,SSE,168,0.0,3.0,66,0.00,,,0.00,weatherlink.com 1.10,2013-05-08 13:24:00,
2013-05-08 15:39:00,72.2,61.0,29.96,South,179,0.0,0.0,67,0.00,,,0.00,weatherlink.com 1.10,2013-05-08 13:39:00,
2013-05-08 15:54:00,71.4,59.0,29.95,South,180,0.0,2.0,64,0.00,,,0.00,weatherlink.com 1.10,2013-05-08 13:54:00,
2013-05-08 16:09:00,71.4,58.0,29.95,SSE,161,0.0,1.0,63,0.00,,,0.00,weatherlink.com 1.10,2013-05-08 14:09:00,
2013-05-08 16:24:00,71.2,57.0,29.95,NE,45,1.0,2.0,62,0.00,,,0.00,weatherlink.com 1.10,2013-05-08 14:24:00,
2013-05-08 16:39:00,70.3,57.0,29.95,South,179,0.0,2.0,63,0.00,,,0.00,weatherlink.com 1.10,2013-05-08 14:39:00,
2013-05-08 16:54:00,70.3,58.0,29.95,SSE,162,0.0,3.0,65,0.00,,,0.00,weatherlink.com 1.10,2013-05-08 14:54:00,
2013-05-08 17:09:00,70.7,58.0,29.94,NE,41,1.0,2.0,65,0.00,,,0.00,weatherlink.com 1.10,2013-05-08 15:09:00,
2013-05-08 17:24:00,70.3,57.0,29.95,South,172,0.0,3.0,64,0.00,,,0.00,weatherlink.com 1.10,2013-05-08 15:24:00,
2013-05-08 17:39:00,69.8,56.0,29.95,ENE,60,0.0,2.0,62,0.00,,,0.00,weatherlink.com 1.10,2013-05-08 15:39:00,
2013-05-08 17:54:00,68.7,56.0,29.95,ENE,67,0.0,3.0,65,0.00,,,0.00,weatherlink.com 1.10,2013-05-08 15:54:00,
2013-05-08 18:09:00,69.0,56.0,29.95,NE,46,0.0,2.0,64,0.00,,,0.00,weatherlink.com 1.10,2013-05-08 16:09:00,
2013-05-08 18:24:00,68.6,56.0,29.95,NE,56,1.0,2.0,64,0.00,,,0.00,weatherlink.com 1.10,2013-05-08 16:24:00,
2013-05-08 18:39:00,68.6,56.0,29.95,SSE,148,0.0,1.0,64,0.00,,,0.00,weatherlink.com 1.10,2013-05-08 16:39:00,
2013-05-08 18:54:00,68.3,56.0,29.95,NE,56,0.0,2.0,64,0.00,,,0.00,weatherlink.com 1.10,2013-05-08 16:54:00,
2013-05-08 19:09:00,68.1,55.0,29.96,South,179,0.0,1.0,64,0.00,,,0.00,weatherlink.com 1.10,2013-05-08 17:09:00,
2013-05-08 19:24:00,67.7,55.0,29.96,SSW,193,0.0,1.0,64,0.00,,,0.00,weatherlink.com 1.10,2013-05-08 17:24:00,
2013-05-08 19:39:00,67.3,55.0,29.96,South,176,0.0,0.0,64,0.00,,,0.00,weatherlink.com 1.10,2013-05-08 17:39:00,
2013-05-08 19:54:00,66.7,54.0,29.96,NE,50,0.0,1.0,63,0.00,,,0.00,weatherlink.com 1.10,2013-05-08 17:54:00,
2013-05-08 20:09:00,66.2,54.0,29.97,East,92,0.0,0.0,65,0.00,,,0.00,weatherlink.com 1.10,2013-05-08 18:09:00,
2013-05-08 20:24:00,65.8,54.0,29.97,ESE,116,0.0,1.0,67,0.00,,,0.00,weatherlink.com 1.10,2013-05-08 18:24:00,
2013-05-08 20:39:00,65.3,56.0,29.97,ESE,116,0.0,0.0,71,0.00,,,0.00,weatherlink.com 1.10,2013-05-08 18:39:00,
2013-05-08 20:54:00,64.7,56.0,29.98,ESE,116,0.0,0.0,73,0.00,,,0.00,weatherlink.com 1.10,2013-05-08 18:54:00,
2013-05-08 21:09:00,64.4,56.0,29.98,South,176,0.0,0.0,75,0.00,,,0.00,weatherlink.com 1.10,2013-05-08 19:09:00,
2013-05-08 21:24:00,64.0,56.0,29.99,South,176,0.0,0.0,76,0.00,,,0.00,weatherlink.com 1.10,2013-05-08 19:24:00,
2013-05-08 21:39:00,63.6,57.0,29.99,South,176,0.0,0.0,78,0.00,,,0.00,weatherlink.com 1.10,2013-05-08 19:39:00,
2013-05-08 21:54:00,63.0,56.0,30.00,South,176,0.0,0.0,79,0.00,,,0.00,weatherlink.com 1.10,2013-05-08 19:54:00,
2013-05-08 22:09:00,62.1,56.0,30.00,South,176,0.0,0.0,81,0.00,,,0.00,weatherlink.com 1.10,2013-05-08 20:09:00,
2013-05-08 22:24:00,61.7,56.0,30.00,South,176,0.0,0.0,82,0.00,,,0.00,weatherlink.com 1.10,2013-05-08 20:24:00,
2013-05-08 22:39:00,60.8,56.0,30.01,South,176,0.0,0.0,84,0.00,,,0.00,weatherlink.com 1.10,2013-05-08 20:39:00,
2013-05-08 22:54:00,60.6,56.0,30.01,South,176,0.0,0.0,84,0.00,,,0.00,weatherlink.com 1.10,2013-05-08 20:54:00,
2013-05-08 23:09:00,60.7,56.0,30.01,South,176,0.0,0.0,85,0.00,,,0.00,weatherlink.com 1.10,2013-05-08 21:09:00,
2013-05-08 23:24:00,60.4,56.0,30.01,South,176,0.0,0.0,86,0.00,,,0.00,weatherlink.com 1.10,2013-05-08 21:24:00,
2013-05-08 23:39:00,59.9,55.0,30.01,South,176,0.0,0.0,85,0.00,,,0.00,weatherlink.com 1.10,2013-05-08 21:39:00,
2013-05-08 23:54:00,59.8,56.0,30.01,South,176,0.0,0.0,86,0.00,,,0.00,weatherlink.com 1.10,2013-05-08 21:54:00,